[[{"header":{"parameterUnit":"m.s-1","parameterCategory":1,"la1":30.2991,"la2":30.254,"lo1":-89.0895,"lo2":-89.0444,"dy":0.0017,"dx":0.0017,"nx":28,"ny":28,"refTime":"2024-12-02T09:00:00:Z","depth":0,"parameterNumber":2,"parameterNumberName":"U-component_of_WINDS"},"data":[0,0,0,0,0,0,0,0,0,0,0,0,0,0,0,0,0,0,0,0,0,0,0,0,0,0,0,0,0,0,0,0,0,0,0,0,0,0,0,0,0,0,0,0,0,0,0,0,0,0,0,0,0,0,0,0,0,0,-4.1771,-4.1771,0,-4.1836,-4.1837,-4.1838,-4.1756,-4.1753,-4.175,-4.1747,-4.1812,-4.1816,-4.1821,0,0,0,0,0,0,0,0,0,0,0,0,0,-4.157,-4.1574,-4.177,-4.1771,-4.1772,-4.1836,-4.1837,-4.1838,-4.1757,-4.1753,-4.1749,-4.1746,-4.181,-4.1816,-4.1821,0,0,0,0,0,0,0,0,0,0,0,0,0,-4.1649,-4.1576,-4.177,-4.1739,-4.1737,-4.1836,-4.1837,-4.1838,-4.1757,-4.1753,-4.1748,-4.1744,-4.1809,-4.1815,-4.1822,-4.1954,0,0,-4.1843,-4.1846,0,0,0,0,0,0,0,0,-4.1644,-4.1656,-4.1743,-4.1742,-4.1739,-4.1783,-4.179,-4.1877,-4.1758,-4.175,-4.1747,-4.1742,-4.1806,-4.1813,-4.1835,-4.1957,-4.1959,-4.1843,-4.1847,-4.185,-4.1852,0,0,0,0,0,0,0,-4.1639,-4.1653,-4.1796,-4.1744,-4.1742,-4.1721,-4.1727,-4.1806,-4.1802,-4.175,-4.1744,-4.1753,-4.1804,-4.1828,-4.1836,-4.196,-4.1843,-4.1849,-4.1853,-4.1856,-4.2191,-4.2195,0,0,0,0,0,0,-4.1638,-4.1649,-4.1794,-4.1798,-4.168,-4.1728,-4.1735,-4.1774,-4.1801,-4.1801,-4.1757,-4.1749,-4.1819,-4.1828,-4.1838,-4.1991,-4.185,-4.1857,-4.186,-4.2186,-4.2192,-4.2197,0,0,0,0,0,0,-4.1634,-4.1651,-4.1792,-4.1722,-4.1738,-4.1736,-4.1781,-4.1777,-4.1802,-4.1806,-4.1805,-4.1783,-4.1816,-4.1828,-4.1925,-4.1992,-4.186,-4.1866,-4.218,-4.2188,-4.2194,-4.23,0,0,0,0,0,0,-4.1628,-4.165,-4.1701,-4.1724,-4.1742,-4.1879,-4.1785,-4.1782,-4.1814,-4.1804,-4.183,-4.183,-4.1813,-4.1915,-4.1932,-4.1999,-4.1871,-4.2174,-4.2183,-4.2192,-4.2291,-4.231,-4.2327,0,0,0,0,0,-4.1621,-4.1729,-4.1704,-4.1722,-4.1806,-4.1883,-4.1894,-4.1873,-4.182,-4.187,-4.1873,-4.1829,-4.1983,-4.1926,-4.1944,-4.2014,-4.217,-4.2181,-4.2191,-4.2283,-4.2307,-4.2327,0,0,0,0,0,0,-4.1713,-4.1731,-4.1704,-4.1823,-4.1852,-4.1869,-4.1932,-4.1899,-4.1944,-4.1933,-4.1904,-4.1911,-4.2013,-4.2024,-4.196,-4.2142,-4.2067,-4.2082,-4.2131,-4.2153,-4.2171,-4.2165,-4.1877,0,0,0,0,0,-4.1748,-4.181,-4.1822,-4.1925,-4.1941,-4.1935,-4.1967,-4.1949,-4.1978,-4.199,-4.1999,-4.2029,-4.2083,-4.2119,-4.217,-4.2293,-4.2296,-4.235,-4.2368,-4.2383,-4.2395,-4.2458,-4.2481,-4.2233,-4.2233,-4.2232,0,0,-4.1819,-4.1836,-4.1877,-4.1944,-4.1964,-4.2028,-4.1945,-4.2017,-4.2063,-4.2,-4.2091,-4.21,-4.213,-4.224,-4.2289,-4.2252,-4.2465,-4.2397,-4.2409,-4.2413,-4.2472,-4.2495,-4.2516,-4.224,-4.2239,-4.2237,0,0,-4.1979,-4.2001,-4.2087,-4.211,-4.2142,-4.2137,-4.2158,-4.2181,-4.2184,-4.2275,-4.2229,-4.2283,-4.2378,-4.2401,-4.2425,-4.2594,-4.2554,-4.2612,-4.2705,-4.2767,-4.2786,-4.2803,-4.286,-4.2882,-4.2624,-4.2625,-4.2625,0,-4.2063,-4.2158,-4.2135,-4.2209,-4.2239,-4.2186,-4.2272,-4.2295,-4.2343,-4.2363,-4.2322,-4.2439,-4.2456,-4.2569,-4.261,-4.2632,-4.2653,-4.2607,-4.2786,-4.2802,-4.2818,-4.2872,-4.2894,-4.2631,-4.263,-4.263,-4.2629,0,-4.2257,-4.2323,-4.2389,-4.2436,-4.2474,-4.2554,-4.2542,-4.2582,-4.2561,-4.256,-4.2652,-4.2671,-4.2723,-4.2749,-4.2729,-4.2859,-4.2834,-4.279,-4.2714,-4.2849,-4.2899,-4.292,-4.264,-4.2638,-4.2636,-4.2634,0,0,-4.2476,-4.251,-4.2534,-4.2554,-4.2586,-4.2636,-4.2713,-4.2764,-4.2798,-4.2833,-4.2894,-4.2976,-4.2935,-4.2962,-4.2944,-4.2999,-4.3127,-4.2947,-4.2947,-4.2977,-4.3268,-4.3299,-4.3323,-4.3103,-4.3107,-4.311,-4.3264,0,-4.2634,-4.2767,-4.2749,-4.2877,-4.2936,-4.2887,-4.2954,-4.298,-4.2981,-4.303,-4.3031,-4.3088,-4.3031,-4.3046,-4.3099,-4.3101,-4.3185,-4.309,-4.3157,-4.316,-4.3148,-4.335,-4.3383,-4.3528,-4.3284,-4.3288,-4.329,0,-4.2836,-4.2878,-4.3012,-4.3033,-4.3057,-4.3117,-4.3162,-4.3211,-4.3239,-4.3235,-4.3266,-4.3238,-4.3312,-4.3238,-4.3339,-4.3275,-4.3302,-4.3307,-4.3312,-4.3315,-4.3231,-4.3355,-4.3574,-4.3595,-4.3321,-4.3319,-4.3317,0,-4.2978,-4.3068,-4.3159,-4.3178,-4.3206,-4.3248,-4.3262,-4.3286,-4.3317,-4.3357,-4.3376,-4.3424,-4.3449,-4.3486,-4.347,-4.3418,-4.3574,-4.3498,-4.3571,-4.3571,-4.3603,-4.36,-4.3826,-4.3626,-4.3626,-4.3626,-4.3625,0,-4.3155,-4.3238,-4.3223,-4.3278,-4.3369,-4.3347,-4.3437,-4.3444,-4.3466,-4.352,-4.3482,-4.3533,-4.3512,-4.3562,-4.3551,-4.3634,-4.3647,-4.3644,-4.364,-4.3646,-4.3646,-4.366,-4.3649,-4.3631,-4.363,-4.3629,-4.3628,0,-4.3327,-4.3321,-4.3416,-4.3435,-4.3442,-4.3507,-4.3522,-4.3573,-4.3572,-4.3641,-4.3656,-4.3653,-4.371,-4.3699,-4.3762,-4.3754,-4.3858,-4.3843,-4.3849,-4.3844,-4.3915,-4.3907,-4.4155,-4.4185,-4.397,-4.3972,-4.3973,0,-4.3439,-4.3501,-4.3527,-4.3561,-4.3577,-4.3633,-4.3665,-4.3646,-4.3681,-4.3717,-4.3763,-4.3816,-4.3858,-4.3951,-4.3953,-4.4,-4.3984,-4.4067,-4.399,-4.3994,-4.3981,-4.3976,-4.398,-4.4081,-4.4084,-4.4086,-4.4088,0,-4.3636,-4.363,-4.3678,-4.3725,-4.3764,-4.38,-4.3832,-4.3862,-4.3846,-4.3886,-4.3944,-4.3976,-4.404,-4.4093,-4.4137,-4.4149,-4.4115,-4.4112,-4.4131,-4.4136,-4.4135,-4.4133,-4.3886,-4.4106,-4.4104,-4.4103,-4.4102,-4.4101,-4.3779,-4.3831,-4.3857,-4.3911,-4.3933,-4.3964,-4.4012,-4.4016,-4.4064,-4.4115,-4.4101,-4.4166,-4.4191,-4.4246,-4.4263,-4.4313,-4.4281,-4.4309,-4.4315,-4.4322,-4.4329,-4.4131,-4.4321,-4.4321,-4.432,-4.432,-4.4319,0,-4.3971,-4.3985,-4.4036,-4.4081,-4.4124,-4.409,-4.4123,-4.416,-4.4218,-4.4245,-4.4286,-4.4351,-4.4402,-4.4409,-4.4457,-4.4495,-4.448,-4.4507,-4.4502,-4.4505,-4.4356,-4.4333,-4.4518,-4.4518,-4.4518,-4.4518,-4.4518,-4.4518,-4.4076,-4.4161,-4.4158,-4.4253,-4.4266,-4.433,-4.4351,-4.4379,-4.4399,-4.4474,-4.4516,-4.4521,-4.4539,-4.4587,-4.4631,-4.4632,-4.4649,-4.4682,-4.4676,-4.4536,-4.4516,-4.4497,-4.4475,-4.4687,-4.4687,-4.4821,-4.4822,-4.4823]},{"header":{"parameterUnit":"m.s-1","parameterCategory":1,"la1":30.2991,"la2":30.254,"lo1":-89.0895,"lo2":-89.0444,"dy":0.0017,"dx":0.0017,"nx":28,"ny":28,"refTime":"2024-12-02T09:00:00:Z","depth":0,"parameterNumber":3,"parameterNumberName":"V-component_of_WINDS"},"data":[0,0,0,0,0,0,0,0,0,0,0,0,0,0,0,0,0,0,0,0,0,0,0,0,0,0,0,0,0,0,0,0,0,0,0,0,0,0,0,0,0,0,0,0,0,0,0,0,0,0,0,0,0,0,0,0,0,0,-1.3729,-1.373,0,-1.377,-1.377,-1.3771,-1.378,-1.378,-1.378,-1.3779,-1.382,-1.3822,-1.3823,0,0,0,0,0,0,0,0,0,0,0,0,0,-1.3659,-1.366,-1.3729,-1.373,-1.373,-1.377,-1.377,-1.3771,-1.378,-1.378,-1.378,-1.3779,-1.382,-1.3821,-1.3823,0,0,0,0,0,0,0,0,0,0,0,0,0,-1.3694,-1.3661,-1.3729,-1.374,-1.3741,-1.377,-1.377,-1.3771,-1.378,-1.378,-1.378,-1.3779,-1.3819,-1.3821,-1.3823,-1.3844,0,0,-1.3829,-1.383,0,0,0,0,0,0,0,0,-1.3692,-1.3696,-1.3738,-1.3739,-1.3741,-1.377,-1.376,-1.3795,-1.378,-1.3766,-1.3779,-1.3779,-1.3804,-1.3807,-1.3815,-1.3846,-1.3847,-1.383,-1.3831,-1.3832,-1.3832,0,0,0,0,0,0,0,-1.3689,-1.3694,-1.3745,-1.3738,-1.374,-1.3742,-1.3747,-1.3767,-1.3786,-1.3767,-1.3768,-1.3772,-1.3804,-1.3813,-1.3816,-1.3848,-1.383,-1.3831,-1.3833,-1.3833,-1.3895,-1.3896,0,0,0,0,0,0,-1.3685,-1.3692,-1.3744,-1.3747,-1.3715,-1.3744,-1.3749,-1.3761,-1.3786,-1.379,-1.3773,-1.3773,-1.381,-1.3814,-1.3818,-1.3843,-1.3832,-1.3834,-1.3835,-1.3895,-1.3895,-1.3896,0,0,0,0,0,0,-1.3684,-1.369,-1.3742,-1.372,-1.3727,-1.3745,-1.3759,-1.3762,-1.3771,-1.3791,-1.3794,-1.3778,-1.381,-1.3815,-1.3837,-1.3844,-1.3834,-1.3836,-1.3894,-1.3895,-1.3896,-1.3892,0,0,0,0,0,0,-1.3682,-1.3689,-1.3698,-1.372,-1.3728,-1.3761,-1.3759,-1.3763,-1.3774,-1.3775,-1.3797,-1.38,-1.381,-1.3834,-1.3839,-1.3847,-1.3838,-1.3894,-1.3895,-1.3895,-1.3892,-1.3893,-1.3894,0,0,0,0,0,-1.3679,-1.3695,-1.3698,-1.3704,-1.3739,-1.3762,-1.3766,-1.3777,-1.3775,-1.3783,-1.3795,-1.3799,-1.3842,-1.3836,-1.3842,-1.385,-1.3893,-1.3894,-1.3895,-1.3892,-1.3893,-1.3894,0,0,0,0,0,0,-1.3674,-1.3698,-1.3702,-1.3726,-1.3741,-1.3763,-1.3774,-1.3779,-1.3795,-1.3795,-1.3808,-1.3813,-1.3834,-1.3844,-1.3837,-1.3871,-1.3868,-1.387,-1.3863,-1.3864,-1.3865,-1.3862,-1.3839,0,0,0,0,0,-1.3675,-1.3692,-1.3713,-1.3732,-1.374,-1.3755,-1.3766,-1.3773,-1.379,-1.3797,-1.3811,-1.3827,-1.3843,-1.3855,-1.3871,-1.3894,-1.3898,-1.3902,-1.3903,-1.3904,-1.3905,-1.3916,-1.3918,-1.3899,-1.3899,-1.3899,0,0,-1.3679,-1.3694,-1.3704,-1.3731,-1.3744,-1.3761,-1.3761,-1.3779,-1.3791,-1.3799,-1.382,-1.3831,-1.385,-1.3871,-1.3882,-1.3881,-1.3911,-1.3905,-1.3905,-1.3907,-1.3918,-1.3919,-1.3921,-1.39,-1.39,-1.39,0,0,-1.3693,-1.3707,-1.3724,-1.3737,-1.3756,-1.3767,-1.377,-1.3791,-1.3799,-1.382,-1.3826,-1.3841,-1.387,-1.3883,-1.3893,-1.391,-1.3914,-1.3916,-1.392,-1.3931,-1.3932,-1.3934,-1.3939,-1.3941,-1.3917,-1.3917,-1.3917,0,-1.3695,-1.372,-1.3732,-1.3749,-1.376,-1.3768,-1.3785,-1.3797,-1.3821,-1.3828,-1.3827,-1.3863,-1.3876,-1.39,-1.3904,-1.3912,-1.3916,-1.3913,-1.3931,-1.3933,-1.3934,-1.3939,-1.3941,-1.3917,-1.3917,-1.3917,-1.3917,0,-1.3721,-1.3738,-1.375,-1.3772,-1.3785,-1.3801,-1.3815,-1.3826,-1.3832,-1.3842,-1.3863,-1.3879,-1.3898,-1.3904,-1.391,-1.3929,-1.3928,-1.3929,-1.3926,-1.3936,-1.3941,-1.3943,-1.3917,-1.3917,-1.3917,-1.3917,0,0,-1.3734,-1.3762,-1.3766,-1.3775,-1.3797,-1.381,-1.3827,-1.3846,-1.3855,-1.3871,-1.3884,-1.3908,-1.3909,-1.392,-1.3928,-1.3937,-1.3949,-1.3937,-1.3937,-1.3938,-1.3969,-1.3968,-1.397,-1.3951,-1.3952,-1.3952,-1.3967,0,-1.375,-1.3781,-1.3791,-1.3816,-1.3831,-1.3838,-1.3852,-1.3867,-1.3876,-1.389,-1.3901,-1.3917,-1.3917,-1.3924,-1.3934,-1.3945,-1.3955,-1.3944,-1.3964,-1.3964,-1.3958,-1.3973,-1.3972,-1.3985,-1.3969,-1.397,-1.397,0,-1.3774,-1.379,-1.3816,-1.3834,-1.3841,-1.3854,-1.3871,-1.3885,-1.3901,-1.3907,-1.3919,-1.3926,-1.3942,-1.3939,-1.3962,-1.3954,-1.3962,-1.3969,-1.397,-1.3972,-1.3967,-1.3975,-1.399,-1.3992,-1.3973,-1.3973,-1.3973,0,-1.378,-1.3807,-1.3826,-1.3835,-1.3857,-1.3865,-1.3875,-1.389,-1.3901,-1.3916,-1.3922,-1.3939,-1.3949,-1.3961,-1.3972,-1.3968,-1.3993,-1.399,-1.3998,-1.3998,-1.4003,-1.4002,-1.4019,-1.4009,-1.4009,-1.4009,-1.4009,0,-1.3797,-1.3812,-1.3829,-1.3841,-1.3858,-1.3869,-1.3886,-1.3895,-1.3909,-1.3922,-1.3929,-1.3941,-1.3955,-1.3968,-1.3976,-1.3993,-1.3998,-1.4002,-1.4004,-1.4002,-1.4001,-1.4007,-1.4006,-1.4009,-1.4009,-1.4009,-1.4009,0,-1.3806,-1.3818,-1.3839,-1.3858,-1.3863,-1.3874,-1.389,-1.3901,-1.3911,-1.3927,-1.3932,-1.3946,-1.3963,-1.3974,-1.3995,-1.4001,-1.4019,-1.4021,-1.4013,-1.4014,-1.4021,-1.402,-1.4042,-1.4045,-1.4033,-1.4033,-1.4033,0,-1.3816,-1.3828,-1.3848,-1.3857,-1.3866,-1.3881,-1.3892,-1.3903,-1.3913,-1.3931,-1.394,-1.3957,-1.3971,-1.3996,-1.4008,-1.4024,-1.4026,-1.4033,-1.4029,-1.4025,-1.4026,-1.4025,-1.4025,-1.4033,-1.4034,-1.4034,-1.4034,0,-1.3832,-1.3837,-1.3852,-1.3868,-1.388,-1.3894,-1.3907,-1.3914,-1.3928,-1.3939,-1.3955,-1.3966,-1.3987,-1.4003,-1.402,-1.4029,-1.4033,-1.4035,-1.4037,-1.4034,-1.4029,-1.4031,-1.4014,-1.4034,-1.4034,-1.4034,-1.4034,-1.4034,-1.3841,-1.3852,-1.3867,-1.3883,-1.3894,-1.3906,-1.3917,-1.3928,-1.3942,-1.396,-1.3965,-1.3982,-1.3996,-1.4019,-1.4029,-1.4042,-1.4041,-1.4045,-1.4046,-1.4047,-1.4046,-1.4027,-1.4045,-1.4045,-1.4045,-1.4045,-1.4045,0,-1.3857,-1.3867,-1.3881,-1.39,-1.3912,-1.3915,-1.393,-1.3939,-1.3954,-1.3967,-1.3981,-1.3999,-1.4014,-1.4027,-1.4043,-1.4051,-1.4053,-1.4054,-1.4054,-1.4056,-1.4046,-1.4042,-1.4052,-1.4052,-1.4052,-1.4052,-1.4052,-1.4052,-1.3867,-1.3884,-1.3891,-1.3913,-1.3923,-1.394,-1.3948,-1.3959,-1.3969,-1.3989,-1.4002,-1.401,-1.4023,-1.404,-1.4054,-1.4057,-1.4062,-1.4063,-1.4067,-1.4057,-1.4057,-1.4056,-1.4052,-1.4064,-1.4064,-1.4076,-1.4076,-1.4076]}]]